Belize, Belize

7:13 AM CST on July 26, 2016 (GMT -0600)
Philip S W Goldson International

Weather History for MZBZ - February, 2012

Change the Weather History Date:

Thursday, February 9, 2012

  Actual Average Record
Temperature  
Mean Temperature 78 °F -  
Max Temperature 84 °F 84 °F 87 °F (2007)
Min Temperature 71 °F - 59 °F (2016)
Cooling Degree Days 12    
Growing Degree Days 28 (Base 50)    
Moisture  
Dew Point 72 °F    
Average Humidity 82    
Maximum Humidity 100    
Minimum Humidity 61    
Precipitation  
Precipitation 0.00 in 0.09 in - ()
Sea Level Pressure  
Sea Level Pressure 30.00 in    
Wind  
Wind Speed 2 mph ()    
Max Wind Speed 7 mph    
Max Gust Speed -    
Visibility 7.9 miles    
Events      
Averages and records for this station are not official NWS values.
T = Trace of Precipitation, MM = Missing Value Source: Averaged Metar Reports

Daily Weather History Graph

Daily Weather History Graph

Search for Another Location

Airport or City:

Trip Planner

Search our weather history database for the weather conditions in past years. The results will help you decide how hot, cold, wet, or windy it might be!

Date:

Astronomy

Feb. 09, 2012 Rise Set
Actual Time 6:22 AM CST 5:52 PM CST
Civil Twilight 6:00 AM CST 6:14 PM CST
Nautical Twilight 5:34 AM CST 6:40 PM CST
Astronomical Twilight 5:09 AM CST 7:05 PM CST
Moon 7:48 PM CST (2/9) 7:24 AM CST (2/9)
Length of Visible Light 12h 13m
Length of Day
11h 29m
Waning Gibbous, 96% of the Moon is Illuminated
Feb 9
Waning Gibbous
Feb 14
Last Quarter
Feb 21
New
Feb 29
First Quarter
Mar 8
Full

Hourly Weather History & Observations

Time (CST) Temp. Heat Index Dew Point Humidity Pressure Visibility Wind Dir Wind Speed Gust Speed Precip Events Conditions
12:00 AM 74 °F - 73 °F 97% 30.03 in 12 mi Calm Calm - -   Partly Cloudy
12:00 AM 73.4 °F - 73.4 °F 100% 30.01 in 6.2 mi Calm Calm - N/A   Mostly Cloudy
3:00 AM 72 °F - 71 °F 96% 29.99 in 12 mi West 2.3 mph - -   Mostly Cloudy
3:00 AM 71.6 °F - 71.6 °F 100% 29.98 in 6.2 mi West 2.3 mph - N/A   Mostly Cloudy
6:00 AM 72 °F - 71 °F 97% 30.02 in 12 mi NW 3.5 mph - -  
6:00 AM 73.4 °F - 71.6 °F 94% 30.01 in 6.2 mi NW 3.5 mph - N/A   Mostly Cloudy
7:00 AM 73.4 °F - 71.6 °F 94% 30.01 in 6.2 mi WNW 2.3 mph - N/A   Mostly Cloudy
8:00 AM 75.2 °F - 73.4 °F 94% 30.04 in 6.2 mi WNW 6.9 mph - N/A   Scattered Clouds
9:00 AM 78 °F - 71 °F 74% 30.06 in 12 mi NNW 3.5 mph - -   Scattered Clouds
9:00 AM 78.8 °F - 71.6 °F 78% 30.05 in 6.2 mi NNW 3.5 mph - N/A   Partly Cloudy
10:00 AM 80.6 °F 84.6 °F 71.6 °F 74% 30.05 in 6.2 mi Calm Calm - N/A   Partly Cloudy
11:00 AM 84.2 °F 89.6 °F 71.6 °F 66% 30.03 in 6.2 mi NE 4.6 mph - N/A   Scattered Clouds
12:00 PM 82 °F - 71 °F 61% 30.02 in 12 mi ENE 5.8 mph - -  
12:00 PM 82.4 °F 87.2 °F 71.6 °F 70% 30.01 in 6.2 mi ENE 5.8 mph - N/A   Scattered Clouds
1:00 PM 80.6 °F 84.6 °F 71.6 °F 74% 29.99 in 6.2 mi ENE 5.8 mph - N/A   Mostly Cloudy
2:00 PM 80.6 °F 84.6 °F 71.6 °F 74% 29.96 in 6.2 mi ENE 5.8 mph - N/A   Mostly Cloudy
3:00 PM 80 °F - 71 °F 67% 29.96 in 12 mi ENE 5.8 mph - -   Mostly Cloudy
3:00 PM 80.6 °F 84.6 °F 71.6 °F 74% 29.95 in 6.2 mi ENE 5.8 mph - N/A   Mostly Cloudy
4:00 PM 80.6 °F 84.6 °F 71.6 °F 74% 29.95 in 6.2 mi East 3.5 mph - N/A   Mostly Cloudy
5:00 PM 80.6 °F 84.6 °F 71.6 °F 74% 29.96 in 6.2 mi East 3.5 mph - N/A   Mostly Cloudy
6:00 PM 78 °F - 72 °F 75% 29.98 in 12 mi ESE 3.5 mph - -  
6:00 PM 78.8 °F - 71.6 °F 78% 29.97 in 6.2 mi ESE 3.5 mph - N/A   Mostly Cloudy
7:00 PM 77.0 °F - 71.6 °F 83% 29.98 in 6.2 mi ESE 3.5 mph - N/A   Mostly Cloudy
8:00 PM 77.0 °F - 71.6 °F 83% 30.00 in 6.2 mi SSE 2.3 mph - N/A   Mostly Cloudy
9:00 PM 77 °F - 72 °F 81% 30.03 in 12 mi Calm Calm - -   Mostly Cloudy
9:00 PM 77.0 °F - 71.6 °F 83% 30.02 in 6.2 mi Calm Calm - N/A   Mostly Cloudy
10:00 PM 75.2 °F - 71.6 °F 89% 30.04 in 6.2 mi Calm Calm - N/A   Mostly Cloudy
11:00 PM 75.2 °F - 71.6 °F 89% 30.04 in 6.2 mi Calm Calm - N/A   Mostly Cloudy